TimeCDT,TemperatureF,Dew PointF,Humidity,Sea Level PressureIn,VisibilityMPH,Wind Direction,Wind SpeedMPH,Gust SpeedMPH,PrecipitationIn,Events,Conditions,WindDirDegrees,DateUTC
12:55 AM,65.1,64.0,96,30.06,8.0,West,5.8,-,N/A,,Clear,270,2012-11-03 05:55:00
1:55 AM,64.4,64.2,99,30.05,5.0,West,5.8,-,N/A,,Clear,270,2012-11-03 06:55:00
2:55 AM,64.4,64.0,99,30.05,4.0,West,5.8,-,N/A,,Clear,270,2012-11-03 07:55:00
3:55 AM,64.0,63.9,99,30.06,4.0,West,4.6,-,N/A,,Clear,270,2012-11-03 08:55:00
4:16 AM,64.4,62.6,94,30.06,2.5,Calm,Calm,-,N/A,,Clear,0,2012-11-03 09:16:00
4:20 AM,64.4,62.6,94,30.06,2.0,Calm,Calm,-,N/A,,Clear,0,2012-11-03 09:20:00
4:22 AM,64.4,62.6,94,30.06,1.5,Calm,Calm,-,N/A,,Clear,0,2012-11-03 09:22:00
4:23 AM,62.6,62.6,100,30.06,1.2,Calm,Calm,-,N/A,,Clear,0,2012-11-03 09:23:00
4:25 AM,62.6,62.6,100,30.06,1.0,Calm,Calm,-,N/A,,Clear,0,2012-11-03 09:25:00
4:27 AM,62.6,62.6,100,30.06,0.8,Calm,Calm,-,N/A,,Clear,0,2012-11-03 09:27:00
4:30 AM,62.6,62.6,100,30.06,0.5,Calm,Calm,-,N/A,Fog,Fog,0,2012-11-03 09:30:00
4:55 AM,63.0,62.8,99,30.07,0.5,West,3.5,-,N/A,Fog,Fog,280,2012-11-03 09:55:00
5:00 AM,62.6,62.6,100,30.08,0.5,West,3.5,-,N/A,Fog,Fog,270,2012-11-03 10:00:00
5:34 AM,62.6,62.6,100,30.09,0.2,Calm,Calm,-,N/A,Fog,Fog,0,2012-11-03 10:34:00
5:55 AM,60.1,59.9,99,30.09,0.2,Calm,Calm,-,N/A,Fog,Fog,0,2012-11-03 10:55:00
6:55 AM,56.7,56.3,99,30.11,0.2,Calm,Calm,-,N/A,Fog,Fog,0,2012-11-03 11:55:00
7:55 AM,57.9,57.7,99,30.12,0.2,Calm,Calm,-,N/A,Fog,Fog,0,2012-11-03 12:55:00
8:10 AM,59.0,59.0,100,30.13,0.5,Calm,Calm,-,N/A,Fog,Fog,0,2012-11-03 13:10:00
8:16 AM,60.8,60.8,100,30.13,0.8,Calm,Calm,-,N/A,,Clear,0,2012-11-03 13:16:00
8:19 AM,60.8,60.8,100,30.13,1.0,Calm,Calm,-,N/A,,Clear,0,2012-11-03 13:19:00
8:20 AM,60.8,60.8,100,30.13,1.2,Calm,Calm,-,N/A,,Clear,0,2012-11-03 13:20:00
8:21 AM,60.8,60.8,100,30.13,1.5,Calm,Calm,-,N/A,,Clear,0,2012-11-03 13:21:00
8:22 AM,62.6,62.6,100,30.13,2.0,Calm,Calm,-,N/A,,Clear,0,2012-11-03 13:22:00
8:23 AM,62.6,62.6,100,30.13,3.0,Calm,Calm,-,N/A,,Clear,0,2012-11-03 13:23:00
8:55 AM,65.8,65.7,99,30.13,10.0,West,4.6,-,N/A,,Clear,280,2012-11-03 13:55:00
9:55 AM,69.3,69.3,100,30.14,10.0,NW,5.8,-,N/A,,Clear,320,2012-11-03 14:55:00
10:55 AM,76.1,64.2,67,30.13,10.0,NW,6.9,-,N/A,,Clear,310,2012-11-03 15:55:00
11:55 AM,80.6,62.4,54,30.11,10.0,WNW,5.8,-,N/A,,Clear,290,2012-11-03 16:55:00
12:55 PM,82.8,60.6,47,30.09,10.0,NW,5.8,-,N/A,,Partly Cloudy,310,2012-11-03 17:55:00
1:55 PM,82.9,60.4,46,30.07,10.0,Calm,Calm,-,N/A,,Partly Cloudy,0,2012-11-03 18:55:00
2:55 PM,82.6,59.9,46,30.05,10.0,Variable,6.9,-,N/A,,Scattered Clouds,0,2012-11-03 19:55:00
3:55 PM,82.2,62.8,52,30.05,10.0,South,12.7,-,N/A,,Clear,180,2012-11-03 20:55:00
4:55 PM,79.9,61.7,54,30.04,10.0,South,12.7,-,N/A,,Clear,180,2012-11-03 21:55:00
5:55 PM,76.5,61.7,60,30.06,10.0,SSW,6.9,-,N/A,,Partly Cloudy,200,2012-11-03 22:55:00
6:55 PM,69.8,62.4,77,30.07,10.0,South,6.9,-,N/A,,Clear,190,2012-11-03 23:55:00
7:55 PM,67.3,63.0,86,30.07,10.0,South,4.6,-,N/A,,Clear,170,2012-11-04 00:55:00
8:55 PM,64.6,62.8,94,30.08,10.0,South,3.5,-,N/A,,Clear,190,2012-11-04 01:55:00
9:55 PM,64.6,62.4,93,30.09,10.0,SSW,4.6,-,N/A,,Clear,200,2012-11-04 02:55:00
10:55 PM,66.6,62.4,86,30.09,10.0,WSW,3.5,-,N/A,,Clear,240,2012-11-04 03:55:00
11:55 PM,60.6,59.7,97,30.09,10.0,Calm,Calm,-,N/A,,Clear,0,2012-11-04 04:55:00